Location: İstanbul
(41.0082°N, 28.9784°E)
Time: 20:16:01
(UTC+02:00)

Oscar 11 - Pass Details

Date: 19 October 2021
Orbit: 614 x 623 km, 97.6° (Epoch: 30 November)

Event Time Altitude Azimuth Distance (km) Brightness Sun altitude
Rises 18:43:44 0° 202° (SSW) 2,867 10.9 -5.7°
Reaches altitude 10° 18:46:24 10° 220° (SW) 1,967 10.4 -6.2°
Maximum altitude 18:49:32 20° 267° (W) 1,445 10.3 -6.8°
Drops below altitude 10° 18:52:41 10° 314° (NW) 1,980 10.2 -7.4°
Sets 18:55:24 0° 332° (NNW) 2,891 10.8 -7.9°
